Regional Weather Roundup
Issued by NWS

Home | Current Version | Previous Version | Text Only | Print | Product List | Glossary On
Versions: 1 2 3 4 5 6 7 8 9 10 11 12 13 14 15 16 17 18 19 20 21 22 23 24 25 26 27 28 29 30 31 32 33 34 35 36 37 38 39 40 41 42 43 44 45 46 47 48 49 50
000
ASUS46 KSEW 230610
RWRWA

WASHINGTON REGIONAL WEATHER ROUNDUP
NATIONAL WEATHER SERVICE SEATTLE WA
1000 PM PST MON JAN 22 2018

NOTE:"FAIR" INDICATES FEW OR NO CLOUDS BELOW 12,000 FEET WITH NO
SIGNIFICANT WEATHER AND/OR OBSTRUCTIONS TO VISIBILITY.

WAZ507-509-555>559-230700-
SEATTLE, TACOMA, EVERETT, AND VICINITY

CITY           SKY/WX    TMP DP  RH WIND       PRES   REMARKS
EVERETT        MOCLDY    40  37  89 SE6       30.25F
6HR MIN TEMP:  40; 6HR MAX TEMP:  44;

BOEING FIELD   CLOUDY    38  36  92 SE5       30.27F
6HR MIN TEMP:  38; 6HR MAX TEMP:  47;

RENTON         CLOUDY    40  36  86 VRB3      30.27F
6HR MIN TEMP:  40; 6HR MAX TEMP:  48;

SEATAC AIRPORT CLOUDY    41  35  79 SE8       30.26F
6HR MIN TEMP:  40; 6HR MAX TEMP:  47;

JBLM-MCCHORD   CLOUDY    35  35 100 CALM      30.26F
6HR MIN TEMP:  34; 6HR MAX TEMP:  43;

PUYALLUP       CLOUDY    36  36 100 CALM      30.26S
BREMERTON      CLOUDY    38  37  97 SW3       30.26S
6HR MIN TEMP:  35; 6HR MAX TEMP:  43;

JBLM-FT LEWIS  CLOUDY    36  36 100 SE5       30.25F
6HR MIN TEMP:  35; 6HR MAX TEMP:  43; 6HR PCP: TRACE;

TACOMA NARROWS CLOUDY    39  38  96 S3        30.26S
6HR MIN TEMP:  39; 6HR MAX TEMP:  43;

$$

WAZ001-503-506-510-514-515-230700-
NORTH INTERIOR

CITY           SKY/WX    TMP DP  RH WIND       PRES   REMARKS
BELLINGHAM     MOCLDY    42  36  79 SE6       30.24S
6HR MIN TEMP:  41; 6HR MAX TEMP:  45;

FRIDAY HARBOR  MOCLDY    43  39  86 E8        30.24S
6HR MIN TEMP:  38; 6HR MAX TEMP:  45;

EASTSOUND      MOCLDY    45  39  81 S8        30.23F
PORT ANGELES   CLOUDY    34  34 100 CALM      30.22F
6HR MIN TEMP:  33; 6HR MAX TEMP:  45;

EDIZ HOOK      FAIR      39  36  89 S5        30.23S
6HR MIN TEMP:  39; 6HR MAX TEMP:  45;

PORT TOWNSEND  FAIR      37  37 100 CALM      30.24S
NAS WHIDBEY    CLOUDY    44  38  79 E9        30.27F
6HR MIN TEMP:  42; 6HR MAX TEMP:  50;

ARLINGTON      CLOUDY    43  37  79 E7        30.27S
6HR MIN TEMP:  41; 6HR MAX TEMP:  46;

BURLINGTON     MOCLDY    39  36  87 E6        30.26S
$$

WAZ020-022-039-040-504-511-512-230700-
SOUTHWEST INTERIOR

CITY           SKY/WX    TMP DP  RH WIND       PRES   REMARKS
SHELTON        FOG       37  36  96 NW3       30.23F VSB 1/4
6HR MIN TEMP:  36; 6HR MAX TEMP:  44; 6HR PCP: TRACE;

OLYMPIA        CLOUDY    34  34 100 CALM      30.25F FOG
6HR MIN TEMP:  33; 6HR MAX TEMP:  43;

CHEHALIS       MOCLDY    39  39 100 SW5       30.26F
KELSO          CLOUDY    44  41  89 S6        30.27F
6HR MIN TEMP:  42; 6HR MAX TEMP:  48; 6HR PCP:  0.05;

VANCOUVER      CLOUDY    43  43 100 E6        30.27F
6HR MIN TEMP:  43; 6HR MAX TEMP:  48; 6HR PCP:  0.02;

SCAPPOOSE, OR  CLOUDY    41  40  96 CALM      30.27F
6HR MIN TEMP:  40; 6HR MAX TEMP:  48;

PORTLAND, OR   MOCLDY    43  41  93 E9        30.28F
6HR MIN TEMP:  42; 6HR MAX TEMP:  47;

$$

WAZ021-516-517-230700-
WASHINGTON COAST

CITY           SKY/WX    TMP DP  RH WIND       PRES   REMARKS
FORKS          CLOUDY    40  38  93 CALM      30.19F
6HR MIN TEMP:  39; 6HR MAX TEMP:  45; 6HR PCP:  0.01;

HOQUIAM        CLOUDY    42  40  92 NE9       30.22F
6HR MIN TEMP:  42; 6HR MAX TEMP:  47; 6HR PCP: TRACE;

ASTORIA, OR    CLOUDY    42  40  92 E3        30.23S
6HR MIN TEMP:  41; 6HR MAX TEMP:  49; 6HR PCP:  0.01;

$$

WAZ019-023-024-040-567>569-230700-
CASCADE MOUNTAINS AND COLUMBIA GORGE

CITY           SKY/WX    TMP DP  RH WIND       PRES   REMARKS
STAMPEDE PASS  NOT AVBL
TROUTDALE, OR  CLOUDY    44  42  93 E6        30.29F
6HR MIN TEMP:  42; 6HR MAX TEMP:  47; 6HR PCP: TRACE;

HOOD RIVER, OR CLOUDY    37  37 100 CALM      30.31S FOG
THE DALLES, OR PTCLDY    37  34  89 E7        30.31F
6HR MIN TEMP:  36; 6HR MAX TEMP:  48;

$$

WAZ026-027-041>044-520-521-230700-
EAST SLOPES

CITY           SKY/WX    TMP DP  RH WIND       PRES   REMARKS
OMAK           PTCLDY    26  24  92 W6        30.27R
6HR MIN TEMP:  26; 6HR MAX TEMP:  38;

WENATCHEE      MOCLDY    32  27  81 NE3       30.26S
6HR MIN TEMP:  30; 6HR MAX TEMP:  44;

ELLENSBURG     NOT AVBL
YAKIMA         PTCLDY    29  25  85 W6        30.27F
6HR MIN TEMP:  29; 6HR MAX TEMP:  50;

SUNNYSIDE ARPT PTCLDY    31  27  86 NE6       30.29F
6HR MIN TEMP:  29; 6HR MAX TEMP:  48;

YAKIMA TC      FAIR      29  25  84 CALM      30.24F
6HR MIN TEMP:  29; 6HR MAX TEMP:  46;

$$

WAZ028-034-035-230700-
COLUMBIA BASIN

CITY           SKY/WX    TMP DP  RH WIND       PRES   REMARKS
EPHRATA        PTCLDY    33  22  63 W3        30.24S
6HR MIN TEMP:  30; 6HR MAX TEMP:  45;

MOSES LAKE     MOCLDY    37  27  67 S6        30.26S
6HR MIN TEMP:  36; 6HR MAX TEMP:  44;

PASCO          MOCLDY    36  31  82 CALM      30.31R
6HR MIN TEMP:  36; 6HR MAX TEMP:  50;

RICHLAND ARPT  MOCLDY    38  32  78 CALM      30.31R
6HR MIN TEMP:  38; 6HR MAX TEMP:  51;

HERMISTON, OR  PTCLDY    31  31 100 CALM      30.30S
6HR MIN TEMP:  31; 6HR MAX TEMP:  48;

$$

WAZ036>038-230700-
NORTHEAST WASHINGTON

CITY           SKY/WX    TMP DP  RH WIND       PRES   REMARKS
SPOKANE GEIGER PTCLDY    32  28  85 SW10      30.23R WCI  24
6HR MIN TEMP:  32; 6HR MAX TEMP:  37;

SPOKANE FELTS  PTCLDY    31  29  92 N3        30.26R
6HR MIN TEMP:  31; 6HR MAX TEMP:  42;

FAIRCHILD AFB  CLEAR     31  31 100 SW8       30.22R
6HR MIN TEMP:  31; 6HR MAX TEMP:  37;

COEURDALENE,ID CLEAR     28  26  92 W3        30.25R
6HR MIN TEMP:  28; 6HR MAX TEMP:  37; 6HR PCP: TRACE;

DEER PARK      PTCLDY    28  25  88 SW3       30.24R
6HR MIN TEMP:  26; 6HR MAX TEMP:  36;

$$

WAZ029>033-230700-
SOUTHEAST WASHINGTON

CITY           SKY/WX    TMP DP  RH WIND       PRES   REMARKS
PULLMAN        PTCLDY    33  28  81 CALM      30.28R
6HR MIN TEMP:  32; 6HR MAX TEMP:  40;

LEWISTON, ID   PTCLDY    36  30  79 CALM      30.30R
6HR MIN TEMP:  36; 6HR MAX TEMP:  48;

WALLA WALLA    PTCLDY    40  32  73 S7        30.29S
6HR MIN TEMP:  37; 6HR MAX TEMP:  47;

PENDLETON, OR  PTCLDY    34  30  85 SE7       30.28S
6HR MIN TEMP:  32; 6HR MAX TEMP:  45;

$$



USA.gov is the U.S. government's official web portal to all federal, state and local government web resources and services.